Weather History for Huntsville, TX

Change the Weather History Date:

Wednesday, March 6, 2013

  Actual Average (KCXO) Record (KCXO)
Temperature  
Mean Temperature 47 °F -  
Max Temperature 64 °F 66 °F 82 °F (2006)
Min Temperature 30 °F 45 °F 30 °F (2013)
Degree Days  
Heating Degree Days 18    
Moisture  
Dew Point 24 °F    
Average Humidity 44    
Maximum Humidity 75    
Minimum Humidity 16    
Precipitation  
Precipitation 0.00 in - - ()
Sea Level Pressure  
Sea Level Pressure 30.33 in    
Wind  
Wind Speed 2 mph (NNE)    
Max Wind Speed 7 mph    
Max Gust Speed -    
Visibility 10 miles    
Events      
Averages and records for this station are not official NWS values.
T = Trace of Precipitation, MM = Missing Value Source: NWS Daily Summary

Daily Weather History Graph

Daily Weather History Graph

Search for Another Location

Airport:

Trip Planner

Search our weather history database for the weather conditions in past years. The results will help you decide how hot, cold, wet, or windy it might be!

Date:

Astronomy

Mar. 06, 2013 Rise Set
Actual Time 6:42 AM CST 6:24 PM CST
Civil Twilight 6:18 AM CST 6:48 PM CST
Nautical Twilight 5:50 AM CST 7:16 PM CST
Astronomical Twilight 5:22 AM CST 7:44 PM CST
Moon 2:36 AM CST (3/6) 1:23 PM CST (3/6)
Length of Visible Light 12h 30m
Length of Day
11h 41m
Waning Crescent, 29% of the Moon is Illuminated
Mar 6
Waning Crescent
Mar 11
New
Mar 19
First Quarter
Mar 27
Full
Apr 2
Last Quarter

Hourly Weather History & Observations

Time (CST) Temp. Windchill Dew Point Humidity Pressure Visibility Wind Dir Wind Speed Gust Speed Precip Events Conditions
12:53 AM 37.9 °F - 23.0 °F 55% 30.34 in 10.0 mi Calm Calm - N/A   Clear
1:53 AM 39.0 °F - 23.0 °F 53% 30.35 in 10.0 mi Calm Calm - N/A   Clear
2:53 AM 37.0 °F 34.5 °F 23.0 °F 57% 30.35 in 10.0 mi North 3.5 mph - N/A   Clear
3:53 AM 36.0 °F - 21.9 °F 57% 30.35 in 10.0 mi Calm Calm - N/A   Clear
4:53 AM 34.0 °F - 24.1 °F 67% 30.37 in 10.0 mi Calm Calm - N/A   Clear
5:53 AM 33.1 °F - 23.0 °F 66% 30.38 in 10.0 mi Calm Calm - N/A   Clear
6:53 AM 30.0 °F 26.5 °F 23.0 °F 75% 30.40 in 10.0 mi North 3.5 mph - N/A   Clear
7:53 AM 37.0 °F 32.4 °F 25.0 °F 62% 30.41 in 10.0 mi North 5.8 mph - N/A   Clear
8:53 AM 45.0 °F 41.2 °F 25.0 °F 46% 30.44 in 10.0 mi NE 6.9 mph - N/A   Clear
9:53 AM 48.0 °F - 24.1 °F 39% 30.44 in 10.0 mi Variable 3.5 mph - N/A   Clear
10:53 AM 52.0 °F - 24.1 °F 34% 30.42 in 10.0 mi Variable 6.9 mph - N/A   Clear
11:53 AM 55.9 °F - 21.9 °F 27% 30.39 in 10.0 mi Variable 3.5 mph - N/A   Clear
12:53 PM 60.1 °F - 24.1 °F 25% 30.36 in 10.0 mi NNW 5.8 mph - N/A   Clear
1:53 PM 62.1 °F - 19.0 °F 19% 30.32 in 10.0 mi Calm Calm - N/A   Clear
2:53 PM 64.0 °F - 18.0 °F 17% 30.28 in 10.0 mi ENE 4.6 mph - N/A   Clear
4:53 PM 64.0 °F - 16.0 °F 16% 30.25 in 10.0 mi Calm Calm - N/A   Clear
5:53 PM 62.1 °F - 21.0 °F 21% 30.23 in 10.0 mi Calm Calm - N/A   Clear
6:53 PM 54.0 °F - 25.0 °F 33% 30.25 in 10.0 mi Calm Calm - N/A   Clear
7:53 PM 52.0 °F - 28.0 °F 40% 30.25 in 10.0 mi Calm Calm - N/A   Clear
8:53 PM 46.9 °F - 30.9 °F 54% 30.26 in 10.0 mi Calm Calm - N/A   Clear
9:53 PM 48.0 °F - 30.9 °F 52% 30.26 in 10.0 mi Calm Calm - N/A   Clear
10:53 PM 45.0 °F - 28.9 °F 53% 30.24 in 10.0 mi Calm Calm - N/A   Clear
11:53 PM 46.0 °F - 30.0 °F 54% 30.24 in 10.0 mi Calm Calm - N/A   Clear